KB4ID Weather Reports


Display with metric or nautical units.
time (UTC)temp
F
wind
direction
speed
MPH
gust
MPH
rain 1hr
in
rain 24hr
in
rain mn
in
humidity
%
barometer
mb
20210508000407 53 163 0.0 0.0 0.00 0.20 0.20 95 1012.5
20210507235409 54 163 0.0 0.0 0.00 0.20 0.20 96 1012.5
20210507234406 54 163 0.0 0.0 0.00 0.20 0.20 96 1012.1
20210507233406 54 163 0.0 0.0 0.00 0.20 0.20 95 1012.1
20210507231408 55 163 0.0 0.0 0.00 0.20 0.20 94 1011.8
20210507230408 55 163 0.0 0.0 0.00 0.20 0.20 94 1011.8
20210507225407 55 163 0.0 0.0 0.00 0.20 0.20 95 1011.5
20210507224406 55 163 0.0 0.0 0.00 0.20 0.20 94 1011.5
20210507223409 56 163 0.0 0.0 0.00 0.20 0.20 94 1011.5
20210507222411 56 163 0.0 0.0 0.00 0.20 0.20 94 1011.1
20210507221406 56 163 0.0 0.0 0.00 0.20 0.20 94 1011.1
20210507220405 56 163 0.0 0.0 0.00 0.20 0.20 94 1011.1
20210507215408 56 163 0.0 0.0 0.00 0.20 0.20 94 1011.1
20210507214406 56 163 0.0 0.0 0.00 0.20 0.20 94 1011.1
20210507213406 56 161 0.0 0.0 0.00 0.20 0.20 97 1011.1
20210507211406 56 345 0.0 0.0 0.00 0.20 0.20 94 1011.1
20210507210409 57 345 0.0 0.0 0.00 0.20 0.20 94 1011.1
20210507204407 57 345 0.0 0.0 0.00 0.20 0.20 93 1010.8
20210507203406 57 345 0.0 0.0 0.00 0.20 0.20 94 1010.8
20210507201406 57 340 0.0 0.0 0.00 0.20 0.20 96 1010.8
20210507195406 57 340 0.0 0.0 0.02 0.20 0.20 95 1010.8
20210507192408 54 340 0.0 0.0 0.02 0.20 0.20 95 1011.1
20210507191409 54 340 0.0 0.0 0.04 0.20 0.20 98 1011.5
20210507190408 54 340 0.0 0.0 0.05 0.20 0.20 98 1011.8
20210507185406 53 340 0.0 0.0 0.04 0.18 0.18 97 1012.1
20210507183407 53 340 0.0 0.0 0.11 0.18 0.18 98 1011.8
20210507182406 53 340 0.0 0.0 0.12 0.18 0.18 96 1011.8
20210507181405 53 340 0.0 0.0 0.12 0.16 0.16 95 1012.1
20210507180410 53 340 0.0 0.0 0.11 0.15 0.15 95 1011.8
20210507175406 54 340 0.0 0.0 0.11 0.14 0.14 93 1012.1
20210507174407 55 340 0.0 0.0 0.10 0.12 0.12 93 1012.5
20210507173406 55 340 0.0 0.0 0.05 0.07 0.07 93 1012.1
20210507165405 58 340 0.0 0.0 0.01 0.03 0.03 85 1012.1
20210507164406 58 340 0.0 0.0 0.00 0.02 0.02 81 1012.1
20210507162408 59 340 0.0 0.0 0.00 0.02 0.02 80 1012.1
20210507155406 58 345 0.0 0.0 0.00 0.02 0.02 81 1012.1
20210507154405 57 19 0.0 0.0 0.00 0.02 0.02 86 1012.1
20210507153405 56 19 0.0 0.0 0.00 0.02 0.02 87 1012.1
20210507152409 56 33 0.0 0.0 0.00 0.02 0.02 91 1012.1
20210507151405 55 33 0.0 0.0 0.00 0.02 0.02 88 1012.5
20210507145408 54 33 0.0 0.0 0.00 0.02 0.02 96 1012.1
20210507144406 54 33 0.0 0.0 0.00 0.02 0.02 97 1012.1
20210507143406 53 33 0.0 0.0 0.00 0.02 0.02 97 1012.1
20210507141406 53 33 0.0 0.0 0.00 0.02 0.02 99 1011.8
20210507140407 53 33 0.0 0.0 0.00 0.02 0.02 99 1011.8
20210507135405 52 33 0.0 0.0 0.00 0.02 0.02 99 1011.8
20210507134405 52 33 0.0 0.0 0.00 0.02 0.02 99 1011.8
20210507133405 52 33 0.0 0.0 0.01 0.02 0.02 99 1011.8
20210507132405 52 33 0.0 0.0 0.01 0.02 0.02 99 1011.5
20210507123406 51 33 0.0 0.0 0.00 0.01 0.01 99 1011.8
20210507121405 50 33 0.0 0.0 0.01 0.01 0.01 99 1011.8
20210507120405 50 33 0.0 0.0 0.01 0.01 0.01 99 1011.8
20210507114405 50 33 0.0 0.0 0.01 0.01 0.01 99 1011.8
20210507113407 49 33 0.0 0.0 0.01 0.01 0.01 99 1011.8
20210507112406 49 33 0.0 0.0 0.01 0.01 0.01 99 1011.8
20210507110405 49 33 0.0 0.0 0.00 0.00 0.00 99 1011.5
20210507105405 49 33 0.0 0.0 0.00 0.00 0.00 99 1011.5
20210507104405 49 33 0.0 0.0 0.00 0.00 0.00 99 1011.5
20210507102405 48 33 0.0 0.0 0.00 0.00 0.00 99 1011.5
20210507100405 48 33 0.0 0.0 0.00 0.00 0.00 99 1011.1
20210507095405 48 33 0.0 0.0 0.00 0.00 0.00 98 1010.8
20210507093406 47 33 0.0 0.0 0.00 0.00 0.00 99 1011.1
20210507092404 47 33 0.0 0.0 0.00 0.00 0.00 99 1010.8
20210507090405 47 33 0.0 0.0 0.00 0.00 0.00 99 1011.1
20210507085405 46 33 0.0 0.0 0.00 0.00 0.00 98 1011.1
20210507082406 46 33 0.0 0.0 0.00 0.00 0.00 98 1011.1
20210507071405 45 33 0.0 0.0 0.00 0.00 0.00 97 1011.8
20210507070405 45 33 0.0 0.0 0.00 0.00 0.00 97 1011.8
20210507064407 45 33 0.0 0.0 0.00 0.00 0.00 97 1012.1
20210507062406 45 33 0.0 0.0 0.00 0.00 0.00 97 1012.1
20210507054405 46 33 0.0 0.0 0.00 0.00 0.00 96 1012.8
20210507053405 46 33 0.0 0.0 0.00 0.00 0.00 96 1012.8
20210507051409 47 33 0.0 0.0 0.00 0.00 0.00 96 1012.8
20210507050406 47 33 0.0 0.0 0.00 0.00 0.00 96 1012.8
20210507045407 47 33 0.0 0.0 0.00 0.00 0.00 96 1012.8
20210507043407 47 33 0.0 0.0 0.00 0.00 0.00 96 1013.2
20210507041409 48 33 0.0 0.0 0.00 0.00 0.00 95 1013.5
20210507035407 48 33 0.0 0.0 0.00 0.00 0.00 95 1013.5
20210507033406 49 33 0.0 0.0 0.00 0.00 0.00 95 1013.5
20210507032406 49 33 0.0 0.0 0.00 0.00 0.00 95 1013.5
20210507030406 50 33 0.0 0.0 0.00 0.00 0.00 95 1013.8
20210507022407 51 33 0.0 0.0 0.00 0.00 0.00 94 1014.2
20210507021406 51 33 0.0 0.0 0.00 0.00 0.00 93 1014.2
20210507014407 52 33 0.0 0.0 0.00 0.00 0.00 92 1014.2
20210507012407 53 33 0.0 0.0 0.00 0.00 0.00 91 1013.8
20210507010406 54 33 0.0 0.0 0.00 0.00 0.00 89 1013.8
20210507005408 55 33 0.0 0.0 0.00 0.00 0.00 89 1013.5
20210507004406 55 33 0.0 0.0 0.00 0.00 0.00 88 1013.8
20210507003408 56 33 0.0 0.0 0.00 0.00 0.00 88 1013.8